Newport News, VA

7:06 PM EDT on July 23, 2017 (GMT -0400)
Newport News-Williamsburg International

Weather History for KPHF - April, 2013

Change the Weather History Date:

Tuesday, April 16, 2013

  Actual Average Record
Temperature  
Mean Temperature 66 °F -  
Max Temperature 78 °F 67 °F 92 °F (1976)
Min Temperature 54 °F 46 °F 35 °F (1962)
Growing Degree Days 16 (Base 50)    
Moisture  
Dew Point 54 °F    
Average Humidity 65    
Maximum Humidity 83    
Minimum Humidity 50    
Precipitation  
Precipitation 0.00 in - - ()
Sea Level Pressure  
Sea Level Pressure 30.26 in    
Wind  
Wind Speed 6 mph (SE)    
Max Wind Speed 14 mph    
Max Gust Speed 21 mph    
Visibility 10 miles    
Events      
Averages and records for this station are not official NWS values.
T = Trace of Precipitation, MM = Missing Value Source: NWS Daily Summary

Daily Weather History Graph

Daily Weather History Graph

Search for Another Location

Airport or City:

Trip Planner

Search our weather history database for the weather conditions in past years. The results will help you decide how hot, cold, wet, or windy it might be!

Date:

Astronomy

Apr. 16, 2013 Rise Set
Actual Time 6:29 AM EDT 7:42 PM EDT
Civil Twilight 6:03 AM EDT 8:08 PM EDT
Nautical Twilight 5:30 AM EDT 8:41 PM EDT
Astronomical Twilight 4:57 AM EDT 9:14 PM EDT
Moon 10:50 AM EDT (4/16) 12:33 AM EDT (4/16)
Length of Visible Light 14h 05m
Length of Day
13h 12m
Waxing Crescent, 33% of the Moon is Illuminated
Apr 16
Waxing Crescent
Apr 18
First Quarter
Apr 25
Full
May 2
Last Quarter
May 9
New

Hourly Weather History & Observations

Time (EDT) Temp. Dew Point Humidity Pressure Visibility Wind Dir Wind Speed Gust Speed Precip Events Conditions
12:54 AM 57.0 °F 51.1 °F 81% 30.26 in 10.0 mi East 4.6 mph - N/A   Scattered Clouds
1:54 AM 54.0 °F 48.9 °F 83% 30.25 in 9.0 mi East 4.6 mph - N/A   Clear
2:54 AM 55.9 °F 50.0 °F 80% 30.25 in 10.0 mi ENE 3.5 mph - N/A   Mostly Cloudy
3:54 AM 57.9 °F 52.0 °F 81% 30.26 in 10.0 mi East 3.5 mph - N/A   Overcast
4:54 AM 59.0 °F 52.0 °F 78% 30.26 in 10.0 mi ENE 3.5 mph - N/A   Overcast
5:54 AM 59.0 °F 52.0 °F 78% 30.26 in 10.0 mi Calm Calm - N/A   Overcast
6:54 AM 57.9 °F 52.0 °F 81% 30.27 in 9.0 mi East 4.6 mph - N/A   Overcast
7:54 AM 60.8 °F 53.6 °F 77% 30.29 in 10.0 mi East 4.6 mph - N/A   Overcast
8:54 AM 66.9 °F 54.0 °F 63% 30.30 in 10.0 mi SE 10.4 mph - N/A   Partly Cloudy
9:54 AM 70.0 °F 53.1 °F 55% 30.30 in 10.0 mi SE 12.7 mph - N/A   Overcast
10:54 AM 71.1 °F 54.0 °F 55% 30.31 in 10.0 mi SSE 12.7 mph 20.7 mph N/A   Overcast
11:54 AM 73.9 °F 55.0 °F 52% 30.30 in 10.0 mi SSE 9.2 mph - N/A   Overcast
12:54 PM 73.9 °F 55.9 °F 53% 30.29 in 10.0 mi South 5.8 mph - N/A   Overcast
1:54 PM 75.9 °F 57.0 °F 52% 30.27 in 10.0 mi SW 11.5 mph - N/A   Overcast
2:54 PM 75.9 °F 57.0 °F 52% 30.26 in 10.0 mi SSW 8.1 mph - N/A   Overcast
3:54 PM 75.9 °F 57.0 °F 52% 30.24 in 10.0 mi SW 5.8 mph - N/A   Overcast
4:54 PM 77.0 °F 57.0 °F 50% 30.22 in 10.0 mi SSE 6.9 mph - N/A   Mostly Cloudy
5:54 PM 75.0 °F 55.9 °F 51% 30.22 in 10.0 mi South 9.2 mph - N/A   Mostly Cloudy
6:54 PM 73.0 °F 55.0 °F 53% 30.22 in 10.0 mi SSE 9.2 mph - N/A   Overcast
7:54 PM 70.0 °F 55.0 °F 59% 30.22 in 10.0 mi SSE 8.1 mph - N/A   Mostly Cloudy
8:54 PM 68.0 °F 55.0 °F 63% 30.22 in 10.0 mi SSE 9.2 mph - N/A   Scattered Clouds
9:54 PM 66.9 °F 55.0 °F 66% 30.22 in 10.0 mi South 12.7 mph - N/A   Clear
10:54 PM 66.0 °F 55.0 °F 68% 30.22 in 10.0 mi South 13.8 mph 18.4 mph N/A   Clear
11:54 PM 64.9 °F 55.9 °F 73% 30.23 in 10.0 mi SSW 8.1 mph - N/A   Clear